Location: Newark
(41.8083°N, 72.2500°W)
Time: 00:55:47
(UTC+00:00)

Transit 2A - Pass Details

Date: 09 December 2021
Orbit: 591 x 967 km, 66.7° (Epoch: 23 January)

Event Time Altitude Azimuth Distance (km) Brightness Sun altitude
Exits shadow 11:14:38 - 335° (NNW) 3,595 9.0 -9.2°
Reaches altitude 10° 11:17:22 10° 345° (NNW) 2,713 8.5 -8.7°
Maximum altitude 11:22:59 32° 47° (NE) 1,591 7.9 -7.8°
Drops below altitude 10° 11:28:25 10° 108° (ESE) 2,610 10.5 -6.8°
Sets 11:31:09 0° 119° (ESE) 3,501 12.1 -6.4°
